EW5586 Weather Reports


Display with metric or nautical units.
time (UTC)temp
F
wind
direction
speed
MPH
gust
MPH
rain 1hr
in
rain 24hr
in
rain mn
in
humidity
%
barometer
mb
20260902224500 76 155 0.0 1.0 0.00 0.00 0.00 86 1011.0
20260902223955 75 155 0.0 0.0 0.00 0.00 0.00 86 1011.0
20260902223448 75 151 0.0 0.0 0.00 0.00 0.00 87 1010.7
20260902222943 75 200 0.0 0.0 0.00 0.00 0.00 87 1010.7
20260902222436 75 200 0.0 0.0 0.00 0.00 0.00 88 1010.7
20260902221931 75 217 0.0 0.0 0.00 0.00 0.00 88 1010.8
20260902221424 75 218 0.0 3.0 0.00 0.00 0.00 88 1010.8
20260902214908 76 173 0.0 3.0 0.00 0.00 0.00 84 1011.2
20260902214410 76 174 0.0 3.0 0.00 0.00 0.00 83 1011.6
20260902213906 76 192 1.0 3.0 0.00 0.00 0.00 83 1011.8
20260902212902 76 196 1.0 5.0 0.00 0.00 0.00 84 1011.9
20260902211904 76 217 3.0 6.0 0.00 0.00 0.00 84 1012.0
20260902210902 77 165 5.0 12.0 0.00 0.00 0.00 83 1012.0
20260902210402 77 170 5.0 12.0 0.00 0.00 0.00 80 1012.1
20260902205902 77 228 4.0 12.0 0.00 0.00 0.00 79 1012.4
20260902204902 78 224 4.0 12.0 0.00 0.00 0.00 80 1013.1
20260902204402 78 252 3.0 12.0 0.00 0.00 0.00 80 1013.4
20260902203902 78 200 3.0 10.0 0.00 0.00 0.00 80 1013.2
20260902203402 78 214 4.0 13.0 0.00 0.00 0.00 80 1013.1
20260902202900 77 223 4.0 13.0 0.00 0.00 0.00 80 1012.9
20260902202400 77 225 5.0 14.0 0.00 0.00 0.00 81 1012.8
20260902201858 77 0 5.0 14.0 0.00 0.00 0.00 82 1012.7
20260902201359 77 144 5.0 10.0 0.00 0.00 0.00 82 1012.6
20260902200858 77 148 5.0 9.0 0.00 0.00 0.00 83 1012.7
20260902200358 77 186 6.0 9.0 0.00 0.00 0.00 82 1012.5
20260902195859 77 148 4.0 9.0 0.00 0.00 0.00 81 1012.5
20260902194858 78 164 3.0 9.0 0.00 0.00 0.00 79 1013.2
20260902194359 77 224 2.0 8.0 0.00 0.00 0.00 80 1013.4
20260902193858 77 211 2.0 7.0 0.00 0.00 0.00 81 1013.4
20260902193358 77 169 4.0 9.0 0.00 0.00 0.00 82 1013.4
20260902192858 77 153 4.0 9.0 0.00 0.00 0.00 81 1013.3
20260902192359 78 175 5.0 10.0 0.00 0.00 0.00 80 1013.3
20260902191858 78 212 5.0 10.0 0.00 0.00 0.00 79 1013.4
20260902191358 78 166 5.0 10.0 0.00 0.00 0.00 78 1013.4
20260902190858 78 185 5.0 9.0 0.00 0.00 0.00 78 1013.4
20260902190358 78 143 5.0 10.0 0.00 0.00 0.00 79 1013.5
20260902185900 77 192 7.0 10.0 0.00 0.00 0.00 79 1013.5
20260902185354 77 0 6.0 10.0 0.00 0.00 0.00 80 1013.4
20260902184854 77 225 6.0 10.0 0.00 0.00 0.00 83 1013.4
20260902184354 78 161 7.0 11.0 0.00 0.00 0.00 83 1013.4
20260902183857 78 173 8.0 11.0 0.00 0.00 0.00 81 1013.3
20260902183354 78 173 6.0 11.0 0.00 0.00 0.00 82 1013.3
20260902182854 78 171 5.0 9.0 0.00 0.00 0.00 84 1013.4
20260902181854 77 161 7.0 11.0 0.00 0.00 0.00 85 1013.5
20260902180854 76 159 6.0 12.0 0.00 0.00 0.00 87 1013.4
20260902174853 76 0 5.0 8.0 0.00 0.00 0.00 86 1013.7
20260902174353 76 196 6.0 10.0 0.00 0.00 0.00 86 1013.9
20260902173853 76 170 6.0 10.0 0.00 0.00 0.00 85 1013.9
20260902173352 77 176 7.0 13.0 0.00 0.00 0.00 84 1014.0
20260902172852 77 167 8.0 13.0 0.00 0.00 0.00 85 1014.1
20260902172353 77 174 8.0 12.0 0.00 0.00 0.00 85 1014.3
20260902171851 76 154 8.0 14.0 0.00 0.00 0.00 85 1014.1
20260902171351 76 160 8.0 14.0 0.00 0.00 0.00 85 1014.2
20260902170349 76 177 9.0 15.0 0.00 0.00 0.00 86 1014.2
20260902165849 76 200 9.0 14.0 0.00 0.00 0.00 87 1014.4
20260902165347 75 151 9.0 14.0 0.00 0.00 0.00 87 1014.4
20260902164849 76 157 8.0 13.0 0.00 0.00 0.00 86 1014.4
20260902164344 75 172 8.0 13.0 0.00 0.00 0.00 87 1014.3
20260902163845 75 164 8.0 13.0 0.00 0.00 0.00 88 1014.5
20260902162344 74 164 9.0 14.0 0.00 0.00 0.00 88 1014.6
20260902161842 74 199 7.0 13.0 0.00 0.00 0.00 89 1014.5
20260902161336 75 151 2.0 11.0 0.00 0.00 0.00 88 1014.6
20260902160835 75 163 2.0 7.0 0.00 0.00 0.00 87 1014.6
20260902160334 75 163 4.0 7.0 0.00 0.00 0.00 86 1014.7
20260902155831 75 196 4.0 7.0 0.00 0.00 0.00 86 1014.5
20260902155330 75 230 5.0 8.0 0.00 0.00 0.00 86 1014.5
20260902154830 75 197 5.0 8.0 0.00 0.00 0.00 86 1014.5
20260902154330 76 215 4.0 8.0 0.00 0.00 0.00 86 1014.5
20260902153828 76 225 4.0 9.0 0.00 0.00 0.00 87 1014.5
20260902153326 76 157 5.0 10.0 0.00 0.00 0.00 87 1014.4
20260902152826 75 171 6.0 10.0 0.00 0.00 0.00 86 1014.3
20260902151826 75 157 4.0 10.0 0.00 0.00 0.00 87 1014.5
20260902151326 74 171 3.0 8.0 0.00 0.00 0.00 87 1014.4
20260902150828 74 178 3.0 11.0 0.00 0.00 0.00 88 1014.4
20260902150326 74 198 4.0 11.0 0.00 0.00 0.00 88 1014.3
20260902145325 74 171 1.0 6.0 0.00 0.00 0.00 89 1014.5
20260902143813 73 181 2.0 5.0 0.00 0.00 0.00 90 1014.9
20260902142801 72 182 2.0 6.0 0.00 0.00 0.00 90 1014.9
20260902141749 72 180 2.0 6.0 0.00 0.00 0.00 90 1015.1
20260902141243 72 173 2.0 6.0 0.00 0.00 0.00 90 1015.2
20260902140737 72 163 1.0 5.0 0.00 0.00 0.00 90 1015.1
20260902140232 71 167 0.0 4.0 0.00 0.00 0.00 91 1015.2
20260902135725 71 171 0.0 4.0 0.00 0.00 0.00 90 1015.3
20260902135219 71 208 0.0 3.0 0.00 0.00 0.00 91 1015.5
20260902134713 71 198 0.0 4.0 0.00 0.00 0.00 91 1015.6
20260902133702 71 199 0.0 3.0 0.00 0.00 0.00 91 1015.7
20260902133156 70 198 0.0 2.0 0.00 0.00 0.00 91 1015.6
20260902132649 70 212 0.0 0.0 0.00 0.00 0.00 92 1015.6
20260902132143 70 171 0.0 1.0 0.00 0.00 0.00 92 1015.6
20260902131637 70 171 0.0 1.0 0.00 0.00 0.00 91 1015.7
20260902131131 70 171 0.0 0.0 0.00 0.00 0.00 92 1015.7
20260902130625 70 171 0.0 0.0 0.00 0.00 0.00 92 1015.7
20260902130119 69 171 0.0 0.0 0.00 0.00 0.00 92 1015.8
20260902125614 69 171 0.0 1.0 0.00 0.00 0.00 93 1015.9
20260902125107 69 171 0.0 2.0 0.00 0.00 0.00 92 1016.0
20260902124601 69 171 0.0 2.0 0.00 0.00 0.00 92 1016.0
20260902124055 69 172 0.0 2.0 0.00 0.00 0.00 92 1015.9
20260902123554 69 175 1.0 4.0 0.00 0.00 0.00 93 1015.8
20260902123043 69 163 1.0 4.0 0.00 0.00 0.00 93 1015.7
20260902122537 69 0 0.0 3.0 0.00 0.00 0.00 93 1015.6
20260902121025 68 165 0.0 5.0 0.00 0.00 0.00 94 1015.7
20260902120524 68 178 0.0 0.0 0.00 0.00 0.00 94 1015.8
20260902120023 68 178 0.0 0.0 0.00 0.00 0.00 94 1015.8
20260902115023 68 177 0.0 0.0 0.00 0.00 0.00 94 1015.9
20260902114523 68 177 0.0 0.0 0.00 0.00 0.00 94 1015.8
20260902114024 68 177 0.0 0.0 0.00 0.00 0.00 94 1015.8
20260902113523 68 177 0.0 0.0 0.00 0.00 0.00 94 1015.7
20260902113022 68 177 0.0 0.0 0.00 0.00 0.00 94 1015.4
20260902112522 68 177 0.0 0.0 0.00 0.00 0.00 94 1015.2
20260902112021 68 177 0.0 0.0 0.00 0.00 0.00 94 1015.0
20260902111521 68 177 2.0 0.0 0.00 0.00 0.00 94 1015.0
20260902111021 0 0.0 0.0 0.00 0.00 0.00 1015.3
20260902110519 0 0.0 0.0 0.00 0.00 0.00 1015.1
20260902110017 0 0.0 0.0 0.00 0.00 0.00 1015.0
20260902105506 0 0.0 0.0 0.00 0.00 0.00 1014.9
20260902104926 0 0.0 0.0 0.00 0.00 0.00 1015.0
20260902104424 0 0.0 0.0 0.00 0.00 0.00 1015.1
20260902103921 0 0.0 0.0 0.00 0.00 0.00 1015.3
20260902103328 0 0.0 0.0 0.00 0.00 0.00 1015.4
20260902102320 0 0.0 0.0 0.00 0.00 0.00 1015.6
20260902101723 0 0.0 0.0 0.00 0.00 0.00 1015.8
20260902101221 0 0.0 0.0 0.00 0.00 0.00 1015.8
20260902095112 0 0.0 0.0 0.00 0.00 0.00 1015.6
20260902094518 0 0.0 0.0 0.00 0.00 0.00 1015.6
20260902094013 0 0.0 0.0 0.00 0.00 0.00 1015.5
20260902093426 0 0.0 0.0 0.00 0.00 0.00 1015.5
20260902092912 0 0.0 0.0 0.00 0.00 0.00 1015.7
20260902092320 0 0.0 0.0 0.00 0.00 0.00 1015.8
20260902091809 0 0.0 0.0 0.00 0.00 0.00 1015.9
20260902091303 0 0.0 0.0 0.00 0.00 0.00 1015.9
20260902090712 0 0.0 0.0 0.00 0.00 0.00 1015.9
20260902085021 0 0.0 0.0 0.00 0.00 0.00 1015.9
20260902084519 0 0.0 0.0 0.00 0.00 0.00 1015.8
20260902083925 0 0.0 0.0 0.00 0.00 0.00 1015.9
20260902083359 0 0.0 0.0 0.00 0.00 0.00 1016.0
20260902082822 0 0.0 0.0 0.00 0.00 0.00 1016.0
20260902082225 0 0.0 0.0 0.00 0.00 0.00 1016.0
20260902081723 0 0.0 0.0 0.00 0.00 0.00 1015.9
20260902081224 68 195 2.0 6.0 0.00 0.00 0.00 93 1015.8
20260902080217 68 195 2.0 5.0 0.00 0.00 0.00 93 1016.0
20260902075715 68 195 2.0 6.0 0.00 0.00 0.00 93 1016.0
20260902075211 69 156 3.0 6.0 0.00 0.00 0.00 93 1015.9
20260902074711 69 166 3.0 6.0 0.00 0.00 0.00 93 1015.9
20260902074211 69 163 4.0 7.0 0.00 0.00 0.00 93 1015.8
20260902073707 69 149 4.0 8.0 0.00 0.00 0.00 93 1015.7
20260902073207 69 187 5.0 8.0 0.00 0.00 0.00 93 1015.7
20260902072707 69 154 5.0 10.0 0.00 0.00 0.00 94 1015.7
20260902071707 69 147 5.0 8.0 0.00 0.00 0.00 94 1015.7
20260902071207 68 162 5.0 8.0 0.00 0.00 0.00 94 1015.6
20260902070707 68 160 4.0 8.0 0.00 0.00 0.00 94 1015.7
20260902070207 68 173 3.0 7.0 0.00 0.00 0.00 94 1015.7
20260902065707 68 163 3.0 6.0 0.00 0.00 0.00 95 1015.6
20260902064202 68 157 4.0 8.0 0.00 0.00 0.00 95 1015.6
20260902063703 68 166 3.0 7.0 0.00 0.00 0.00 95 1015.7
20260902063203 68 157 1.0 7.0 0.00 0.00 0.00 96 1015.7
20260902062703 67 161 1.0 5.0 0.00 0.00 0.00 96 1015.8
20260902062203 66 38 1.0 4.0 0.00 0.00 0.00 96 1015.9
20260902060703 63 5 0.0 0.0 0.00 0.00 0.00 94 1015.7
20260902060203 62 5 0.0 0.0 0.00 0.00 0.00 94 1015.8
20260902055203 62 5 0.0 0.0 0.00 0.00 0.00 93 1015.8
20260902054703 62 5 0.0 0.0 0.00 0.00 0.00 93 1015.8
20260902054202 62 5 0.0 0.0 0.00 0.00 0.00 93 1015.9
20260902053203 63 5 0.0 0.0 0.00 0.00 0.00 92 1015.8
20260902052703 63 5 0.0 0.0 0.00 0.00 0.00 92 1015.7
20260902052200 63 5 0.0 0.0 0.00 0.00 0.00 92 1015.7
20260902051701 63 5 0.0 0.0 0.00 0.00 0.00 92 1015.7
20260902051159 63 5 0.0 0.0 0.00 0.00 0.00 92 1015.7
20260902045653 64 5 0.0 0.0 0.00 0.00 0.00 92 1015.8
20260902045151 64 5 0.0 0.0 0.00 0.00 0.00 92 1015.7
20260902044651 64 5 0.0 0.0 0.00 0.00 0.00 91 1015.6
20260902044156 64 5 0.0 0.0 0.00 0.00 0.00 91 1015.5
20260902043648 64 5 0.0 0.0 0.00 0.00 0.00 91 1015.6
20260902043149 64 5 0.0 0.0 0.00 0.00 0.00 91 1015.6
20260902042647 64 5 0.0 0.0 0.00 0.00 0.00 91 1015.6
20260902042147 64 5 0.0 0.0 0.00 0.00 0.00 91 1015.6
20260902041645 64 5 0.0 0.0 0.00 0.00 0.00 90 1015.6
20260902041145 64 5 0.0 0.0 0.00 0.00 0.00 90 1015.5
20260902040643 64 5 0.0 0.0 0.00 0.00 0.00 90 1015.5
20260902040136 64 5 0.0 0.0 0.00 0.00 0.00 90 1015.4
20260902035630 64 5 0.0 0.0 0.00 0.00 0.00 89 1015.4
20260902035124 64 5 0.0 0.0 0.00 0.00 0.00 89 1015.5
20260902034619 65 0 0.0 0.0 0.00 0.00 0.00 89 1015.5
20260902034112 65 0 0.0 0.0 0.00 0.00 0.00 89 1015.5
20260902033606 65 0 0.0 0.0 0.00 0.00 0.00 89 1015.4
20260902033101 65 0 0.0 0.0 0.00 0.00 0.00 89 1015.5
20260902032557 65 0 0.0 0.0 0.00 0.00 0.00 89 1015.4
20260902031542 65 0 0.0 0.0 0.00 0.00 0.00 89 1015.5
20260902031037 65 0 0.0 0.0 0.00 0.00 0.00 89 1015.5
20260902030530 65 0 0.0 0.0 0.00 0.00 0.00 89 1015.4
20260902030024 65 0 0.0 0.0 0.00 0.00 0.00 89 1015.4
20260902025518 65 0 0.0 0.0 0.00 0.00 0.00 89 1015.3
20260902025012 65 0 0.0 0.0 0.00 0.00 0.00 89 1015.2
20260902024506 65 0 0.0 0.0 0.00 0.00 0.00 89 1015.2
20260902024001 65 0 0.0 0.0 0.00 0.00 0.00 89 1015.3
20260902023454 65 0 0.0 0.0 0.00 0.00 0.00 88 1015.3
20260902022948 65 0 0.0 0.0 0.00 0.00 0.00 88 1015.3
20260902021936 65 5 0.0 0.0 0.00 0.00 0.00 86 1015.4
20260902021430 66 5 0.0 0.0 0.00 0.00 0.00 85 1015.3
20260902020924 66 5 0.0 0.0 0.00 0.00 0.00 84 1015.2
20260902020418 67 0 0.0 0.0 0.00 0.00 0.00 83 1015.2
20260902015912 67 0 0.0 0.0 0.00 0.00 0.00 83 1015.2
20260902015406 67 0 0.0 0.0 0.00 0.00 0.00 82 1015.2
20260902014354 68 0 0.0 0.0 0.00 0.00 0.00 82 1015.2
20260902013848 68 355 0.0 0.0 0.00 0.00 0.00 81 1015.1
20260902013343 69 0 0.0 0.0 0.00 0.00 0.00 80 1015.1
20260902012836 69 0 0.0 0.0 0.00 0.00 0.00 79 1015.1
20260902012331 69 5 0.0 0.0 0.00 0.00 0.00 79 1015.0
20260902011824 69 9 0.0 0.0 0.00 0.00 0.00 78 1015.0
20260902011318 69 11 0.0 0.0 0.00 0.00 0.00 78 1015.0
20260902010812 69 5 0.0 0.0 0.00 0.00 0.00 78 1014.9
20260902005802 70 0 0.0 0.0 0.00 0.00 0.00 77 1014.7
20260902005254 70 12 0.0 0.0 0.00 0.00 0.00 77 1014.6
20260902004748 70 5 0.0 0.0 0.00 0.00 0.00 76 1014.5
20260902004242 70 0 0.0 0.0 0.00 0.00 0.00 76 1014.5
20260902003736 70 11 0.0 0.0 0.00 0.00 0.00 76 1014.5
20260902003231 70 5 0.0 0.0 0.00 0.00 0.00 76 1014.5
20260902002218 71 355 0.0 0.0 0.00 0.00 0.00 76 1014.7
20260902001206 71 331 1.0 4.0 0.00 0.00 0.00 75 1014.7
20260902000700 71 19 0.0 3.0 0.00 0.00 0.00 74 1014.5
20260902000154 71 19 0.0 1.0 0.00 0.00 0.00 74 1014.5
20260901235141 72 350 1.0 7.0 0.00 0.00 0.00 74 1014.8
20260901234634 72 5 0.0 7.0 0.00 0.00 0.00 73 1014.8
20260901234128 72 5 1.0 4.0 0.00 0.00 0.00 74 1014.9
20260901233622 72 29 2.0 4.0 0.00 0.00 0.00 73 1014.9
20260901233116 72 45 2.0 7.0 0.00 0.00 0.00 74 1014.9
20260901232610 73 350 2.0 7.0 0.00 0.00 0.00 73 1015.0
20260901232104 73 0 2.0 8.0 0.00 0.00 0.00 74 1014.9
20260901231052 73 348 1.0 5.0 0.00 0.00 0.00 73 1014.9
20260901230547 73 5 1.0 5.0 0.00 0.00 0.00 74 1014.9
20260901230040 73 17 2.0 6.0 0.00 0.00 0.00 74 1014.9
20260901225535 74 335 1.0 6.0 0.00 0.00 0.00 74 1014.8
20260901225028 74 355 1.0 6.0 0.00 0.00 0.00 75 1014.8